Regional Weather Roundup
Issued by NWS

Home | Current Version | Previous Version | Text Only | Print | Product List | Glossary Off
Versions: 1 2 3 4 5 6 7 8 9 10 11 12 13 14 15 16 17 18 19 20 21 22 23 24 25 26 27 28 29 30 31 32 33 34 35 36 37 38 39 40 41 42 43 44 45 46 47 48 49 50

000
ASUS45 KBOI 261010
RWRID
WEATHER ROUNDUP FOR IDAHO
NATIONAL WEATHER SERVICE BOISE ID
400 AM MDT TUE AUG 26 2014

NOTE: "FAIR" INDICATES FEW OR NO CLOUDS BELOW 12000 FEET
WITH NO SIGNIFICANT WEATHER AND/OR OBSTRUCTIONS TO VISIBILITY

IDZ012-014-261100-
SOUTHWEST IDAHO


CITY           SKY/WX    TMP DP  RH WIND       PRES   REMARKS
BOISE          FAIR      57  49  74 SE6       30.06S
CALDWELL       FAIR      55  43  62 NW6       30.07S
MOUNTAIN HOME  FAIR      52  46  80 E1        30.07R
$$

IDZ016-017-261100-
SOUTHCENTRAL IDAHO


CITY           SKY/WX    TMP DP  RH WIND       PRES   REMARKS
BURLEY         CLOUDY    52  49  89 CALM      30.11R
JEROME         FAIR      53  49  86 E3        30.12R
TWIN FALLS     FAIR      54  49  83 S10       30.11R
$$

IDZ019>023-261100-
SOUTHEAST IDAHO


CITY           SKY/WX    TMP DP  RH WIND       PRES   REMARKS
IDAHO FALLS    PTCLDY    46  45  96 N6        30.14S
POCATELLO      PTCLDY    47  47 100 CALM      30.13R FOG
REXBURG        PTCLDY    45  43  93 N3        30.15R
$$

IDZ006-010-011-018-031-032-261100-
CENTRAL IDAHO MOUNTAINS


CITY           SKY/WX    TMP DP  RH WIND       PRES   REMARKS
MCCALL         FAIR      44  40  85 CALM      30.15R
HAILEY         FAIR      48  45  87 NW9       30.18S
STANLEY          N/A     38  37  97 CALM      30.25R
SALMON         FAIR      48  46  93 CALM      30.15R
CHALLIS        FAIR      47  44  90 SE3       30.18R
$$

IDZ002-004-006-007-026-261100-
NORTHERN IDAHO


CITY           SKY/WX    TMP DP  RH WIND       PRES   REMARKS
LEWISTON       FAIR      62  45  53 CALM      30.03R
LOWELL           N/A     53  50  89 CALM      30.11R
COEUR D`ALENE  FAIR      50  41  71 NE5       30.05R
MULLAN PASS    FAIR      50  37  61 NW5       30.18S
$$



USA.gov is the U.S. government's official web portal to all federal, state and local government web resources and services.